Location: Days
(41.3591°N, 106.7339°W)
Time: 19:41:33
(UTC+00:00)

RS-15 - Pass Details

Date: 30 June 2022
Orbit: 1881 x 2163 km, 64.8° (Epoch: 15 August)

Event Time Altitude Azimuth Distance (km) Brightness Sun altitude
Rises 06:41:46 0° 325° (NW) 5,698 11.5 -25.1°
Reaches altitude 10° 06:45:16 10° 328° (NNW) 4,690 10.8 -25.2°
Maximum altitude 06:57:42 79° 56° (NE) 2,162 8.2 -25.4°
Enters shadow 07:05:38 26° 140° (SE) 3,414 8.8 -25.5°
